Temperature
14 14 14 15 15 15 15 16 16 16 16 15 15 15 15 15 15 15 15 15 15 15 14 14 14 14 14 14 14 14 14 14 14 14 14 14 14 15 15 15 15 15 15
14 15 15 15 15 15 15 16 16 16 15 15 15 15 15 15 15 15 15 15 15 14 14 14 14 14 14 14 14 14 14 14 14 14 14 14 14 14 14 15 15 15 15
14 15 15 15 15 15 15 15 15 15 15 15 15 15 15 15 15 15 14 14 14 14 14 14 13 13 14 14 14 14 14 13 13 13 13 14 14 14 14 14 14 14 15
14 14 14 15 15 15 15 15 15 15 15 15 15 15 15 15 15 15 14 14 14 14 14 14 14 13 13 13 13 13 13 13 13 13 13 13 13 13 13 14 14 14 14
14 14 14 14 15 15 15 15 15 15 15 15 15 15 15 15 14 14 14 14 14 14 14 14 14 14 14 14 13 13 13 13 13 13 13 13 13 13 13 13 13 13 14
13 14 14 14 14 15 15 15 15 15 15 15 15 15 15 15 15 15 14 14 14 14 14 14 14 14 14 14 14 14 13 13 13 13 13 13 13 13 13 13 13 13 13
13 13 13 13 14 14 14 14 14 14 15 15 15 15 14 14 15 15 15 14 14 14 14 14 13 14 14 13 13 14 13 13 13 13 13 13 12 12 12 12 12 12 12
12 12 12 12 13 13 13 13 13 13 14 14 14 14 14 14 14 14 14 14 14 14 14 14 13 13 13 13 13 13 13 13 13 13 12 12 12 12 12 12 12 12 12
11 11 12 12 12 12 12 12 12 12 12 13 13 13 13 13 14 14 14 14 13 13 13 13 13 13 14 14 14 13 13 13 13 13 13 13 13 13 12 12 12 12 12
11 11 11 12 12 12 12 12 12 12 12 12 12 12 12 12 13 13 13 13 13 13 13 13 14 13 14 14 14 13 13 13 13 13 13 13 13 13 13 12 12 12 12
11 11 11 11 11 12 12 12 12 12 12 11 12 12 12 12 12 13 13 13 13 13 13 13 13 13 13 13 13 13 13 13 13 13 13 13 12 12 12 12 12 12 12
11 11 11 11 11 11 12 12 12 12 11 11 11 11 11 11 12 12 12 13 13 12 12 12 13 13 13 13 13 13 13 13 13 13 12 12 12 12 12 12 12 12 12
11 11 11 11 11 11 11 11 11 11 11 11 11 11 11 11 11 12 12 12 12 12 12 12 12 12 12 12 12 13 12 12 12 12 12 12 12 12 12 12 12 12 12
11 11 11 11 11 11 11 11 11 11 10 10 10 10 10 11 11 11 11 11 11 11 12 12 12 12 12 12 12 12 11 12 12 12 12 11 11 11 11 11 11 11 11
12 11 11 11 11 10 10 10 10 10 10 10 10 10 10 10 10 11 11 11 11 11 11 11 11 11 11 11 11 11 11 11 11 11 11 11 11 11 11 11 11 11 10
12 12 11 11 11 10 10 10 10 10 10 10 10 10 10 10 10 10 10 10 10 10 10 10 10 10 10 10 10 10 10 10 10 10 10 10 10 10 10 10 10 10 10
12 12 11 11 11 10 10 10 9 9 9 9 9 10 10 10 10 10 10 10 10 10 10 10 9 9 9 10 10 9 9 10 10 10 10 10 9 9 9 9 9 9 9
12 12 11 11 10 10 10 10 10 9 9 9 9 9 9 9 10 10 10 10 10 10 9 9 9 9 9 9 9 9 9 9 9 9 9 9 9 9 9 8 8 8 8
12 12 11 11 11 10 10 10 10 9 9 9 9 9 9 9 9 9 9 9 9 9 9 8 8 8 8 8 8 8 8 8 8 8 8 8 8 8 8 8 8 8 8
13 12 11 11 11 10 10 10 10 10 10 9 9 9 9 9 9 9 9 9 8 8 8 8 8 8 8 8 8 8 8 8 8 8 8 8 8 8 7 7 7 7 7
13 12 12 11 11 11 10 10 10 10 10 10 9 9 9 9 9 9 8 8 8 8 8 8 8 8 8 8 8 8 8 7 8 8 7 7 7 6 6 6 6 6 6
13 12 12 11 11 10 10 10 10 10 10 9 9 9 9 9 9 8 8 8 8 8 8 8 8 8 8 8 8 8 7 7 7 7 7 6 6 6 6 6 6 6 5
13 12 12 11 11 11 10 10 10 10 10 9 9 9 9 9 8 8 8 8 8 8 8 8 8 8 8 8 8 7 7 7 7 6 6 6 5 5 5 5 5 5 5
13 12 12 11 11 11 10 10 10 10 10 9 9 9 9 8 8 8 8 8 8 8 8 8 8 8 8 8 7 7 7 7 7 6 6 6 5 5 5 5 5 5 5
13 13 12 12 11 11 11 10 10 10 10 10 9 9 9 8 8 8 8 8 8 8 8 8 8 8 8 7 7 7 7 7 7 7 6 5 5 5 5 5 5 5 4
13 13 12 12 11 11 11 10 10 10 10 9 9 9 9 8 8 8 8 8 8 8 8 8 8 8 8 8 8 7 7 7 7 7 6 6 5 5 5 5 5 5 4
Wind_Speed
6 4 3 1 0 2 3 3 4 5 5 5 4 4 4 4 4 4 4 5 6 7 7 8 9 10 8 9 9 9 9 9 11 8 4 4 5 7 6 10 11 12 13
3 2 1 1 2 4 3 4 4 5 4 4 4 4 3 3 3 3 3 4 5 6 7 7 8 8 9 9 8 10 9 10 10 11 7 5 7 6 6 8 8 11 11
3 2 1 1 2 2 3 3 3 3 4 4 4 4 4 3 3 3 3 3 4 4 4 5 6 6 7 7 8 8 8 9 9 9 7 5 4 4 5 6 8 8 10
3 3 3 2 1 1 1 1 2 3 3 4 5 5 5 5 5 4 4 4 3 3 3 4 4 4 5 5 5 6 6 7 7 7 6 5 4 3 4 6 6 7 7
7 7 6 5 5 4 3 1 1 2 4 5 6 6 6 6 5 5 5 4 4 4 4 3 2 2 4 3 3 3 4 4 5 5 5 5 5 4 5 4 6 5 6
9 9 7 7 6 5 4 3 2 2 3 4 6 6 6 6 3 3 6 6 6 5 4 3 3 3 3 4 3 3 4 3 3 4 4 5 5 6 5 5 4 4 5
10 9 9 8 7 7 6 5 4 3 2 2 3 3 5 3 2 6 9 7 7 6 5 4 3 2 3 4 6 7 6 4 4 3 3 3 3 4 5 5 5 4 4
11 10 9 8 8 8 8 7 6 5 4 3 3 3 2 1 1 5 7 10 7 6 6 5 5 4 2 3 3 4 3 4 4 5 4 2 1 2 3 3 3 3 2
11 10 10 9 9 8 8 8 7 6 5 5 5 5 4 3 4 3 6 7 6 6 5 4 4 4 3 2 5 4 4 3 4 6 6 4 3 2 3 3 3 3 3
10 10 9 9 9 9 8 8 7 6 6 6 6 7 7 7 8 6 5 4 4 4 3 2 0 3 2 3 5 4 4 2 2 3 5 6 6 6 8 6 4 4 3
8 8 9 9 9 8 8 8 7 7 7 7 7 7 8 9 9 10 8 2 1 2 2 2 1 2 1 1 5 3 3 4 2 2 1 1 1 1 3 4 3 4 4
6 7 8 8 8 7 8 8 8 8 8 8 8 8 7 8 9 10 10 7 6 1 1 1 3 4 3 2 2 4 2 3 2 1 1 0 0 0 0 1 2 3 3
5 6 6 7 7 8 8 8 8 8 7 7 7 7 7 7 7 8 8 8 7 4 5 7 6 4 2 4 6 2 2 1 1 1 1 2 2 2 2 1 2 2 1
5 6 6 6 7 7 7 7 7 8 8 7 7 7 7 7 8 7 6 5 5 5 5 6 5 4 3 4 2 1 3 4 3 3 2 2 2 2 2 2 2 2 2
4 5 5 6 6 6 7 6 7 8 7 7 6 6 7 7 9 10 8 7 6 5 4 4 5 4 4 4 4 4 4 3 3 3 2 2 2 2 2 2 2 2 2
4 5 5 5 5 5 5 6 7 6 8 10 11 9 7 8 9 10 12 12 11 8 6 7 6 6 6 5 5 5 5 5 5 4 3 3 3 3 3 2 2 3 3
2 3 3 4 4 4 5 5 5 5 6 10 13 13 12 11 11 10 10 11 12 9 8 8 7 7 6 6 6 6 5 5 5 5 5 4 4 3 3 3 3 4 4
1 2 2 3 3 4 5 5 5 5 5 6 9 12 12 12 13 12 8 6 9 9 8 8 7 7 6 6 6 6 5 5 5 5 5 5 5 5 4 4 4 5 5
2 2 2 3 3 3 4 4 4 5 5 5 5 6 6 6 10 11 10 9 8 8 7 7 7 6 6 6 6 5 5 6 6 6 6 6 6 5 5 5 5 5 5
2 2 1 2 2 3 3 4 4 4 5 5 5 5 5 6 7 8 8 7 7 6 6 6 6 6 6 6 5 5 5 5 6 5 5 5 5 5 5 6 5 5 5
3 4 4 2 2 2 2 3 3 3 4 4 5 6 6 5 6 6 6 6 6 6 5 5 5 5 6 5 5 6 6 5 5 5 5 5 5 5 5 5 6 6 6
4 4 3 2 2 2 2 2 2 3 3 3 3 4 3 4 4 5 4 5 5 4 5 4 4 5 5 5 5 5 5 5 6 6 6 6 5 5 5 5 5 6 6
4 4 4 3 3 3 2 2 2 2 2 2 2 2 2 3 3 3 3 4 4 4 4 4 4 4 5 5 5 5 5 6 6 6 6 6 5 5 5 5 6 6 6
4 4 4 4 3 3 3 2 2 2 2 2 2 2 2 2 2 3 3 3 3 4 4 4 5 5 6 5 5 5 7 8 8 6 6 5 5 5 5 5 6 6 6
4 5 5 4 4 4 3 3 3 3 3 2 2 2 2 2 2 2 2 2 3 3 4 4 4 5 6 6 7 8 9 9 8 9 6 5 5 5 5 5 5 5 6
5 5 5 4 4 4 4 4 4 3 3 3 2 2 2 2 2 2 2 2 2 2 3 3 4 5 5 6 8 9 9 9 9 9 7 5 5 6 5 4 5 5 6
Wind_Direction
73 70 65 46 58 238 226 203 184 175 173 171 168 174 173 177 182 188 212 213 227 234 234 237 238 237 235 231 230 230 230 231 242 247 226 235 225 232 204 223 227 213 211
50 63 69 232 225 227 212 192 181 176 179 180 169 181 174 183 192 200 207 214 226 237 240 242 243 238 236 234 229 230 230 231 237 247 236 221 233 242 240 226 223 225 230
22 21 10 219 225 224 199 180 183 189 192 193 195 198 196 203 204 208 211 216 222 233 241 248 251 247 243 238 235 236 234 234 231 239 238 219 221 227 237 238 231 230 234
51 55 55 54 54 44 98 185 220 226 228 230 224 223 218 218 221 217 218 219 218 224 233 242 250 256 260 249 242 241 239 236 229 232 235 220 212 208 222 228 228 221 229
61 59 51 46 43 40 36 5 302 278 259 248 239 234 228 230 231 229 224 227 223 220 223 226 232 356 1 329 299 271 244 235 230 228 230 222 209 194 213 219 230 226 232
57 53 46 46 44 35 29 22 8 326 285 263 250 241 235 233 180 233 252 229 227 223 222 218 187 199 191 219 270 310 313 276 253 239 238 235 226 212 205 203 213 220 230
56 51 46 44 42 36 34 33 24 10 344 303 278 263 251 235 169 221 238 246 235 233 230 214 207 219 234 229 199 212 230 233 260 275 258 246 240 212 198 201 208 218 229
52 49 45 42 43 40 38 33 25 19 17 2 348 332 305 326 279 248 229 237 233 227 228 231 227 225 227 283 260 247 248 222 222 243 257 260 252 207 201 205 203 213 230
46 43 41 40 39 37 35 32 27 27 30 26 21 12 4 20 13 301 244 230 229 226 225 236 255 255 106 284 272 266 261 247 211 251 295 309 337 278 259 224 206 209 224
44 44 43 42 39 37 35 32 30 35 38 39 37 29 28 28 24 6 296 238 229 218 216 215 84 323 46 260 265 276 281 286 263 220 227 225 233 216 216 238 240 240 248
44 44 42 40 40 36 35 36 37 39 43 45 45 39 37 31 31 25 5 328 264 219 192 185 121 66 28 292 286 313 359 330 301 291 278 236 226 215 214 234 245 254 261
44 44 42 39 36 35 37 37 38 38 40 39 41 40 36 34 30 28 27 21 356 68 99 107 92 85 75 30 359 44 12 291 302 295 272 260 253 32 334 319 287 263 274
43 42 39 43 43 38 37 36 37 35 36 33 33 31 28 26 29 35 41 42 24 43 64 65 71 76 128 105 79 28 290 339 8 355 17 42 39 34 37 21 359 347 315
35 35 37 41 45 48 43 40 40 34 32 33 29 25 24 28 22 15 25 49 73 78 86 104 112 83 76 72 98 61 40 39 23 35 45 49 49 47 42 19 5 340 306
32 40 42 48 48 52 60 48 44 48 32 21 20 20 20 25 17 10 18 34 37 47 65 76 68 66 61 56 58 53 43 47 47 41 40 42 35 35 40 25 4 337 328
26 38 40 47 49 49 64 87 71 53 45 38 29 19 51 43 33 43 50 47 40 27 62 69 62 57 53 47 46 47 41 35 26 26 32 34 28 25 22 10 350 336 332
28 48 49 44 50 52 53 60 87 106 99 64 48 43 45 45 46 47 53 58 46 45 62 60 55 51 46 42 42 42 37 29 24 26 27 26 22 17 10 4 358 347 341
82 79 64 62 54 57 58 58 59 63 75 79 72 57 49 50 46 36 26 56 59 54 54 52 48 45 41 39 36 35 31 27 24 23 25 22 15 7 3 2 3 357 343
149 117 94 79 76 74 70 69 70 70 69 69 74 77 67 71 65 44 37 53 54 51 49 47 40 36 34 33 30 29 28 26 21 17 17 13 6 359 357 355 352 347 330
146 96 94 118 111 99 86 82 80 77 73 66 56 44 46 50 51 48 47 49 51 48 44 42 37 33 28 24 22 19 21 23 19 15 9 5 0 353 349 345 342 339 338
161 153 176 171 113 104 96 91 90 90 83 75 64 45 21 52 56 52 46 44 41 40 39 38 34 27 22 17 14 15 16 16 14 6 1 358 353 350 347 344 345 344 340
169 167 170 148 140 143 127 119 108 105 101 97 97 90 56 55 58 57 53 48 43 36 30 30 36 32 22 16 12 13 13 13 9 2 356 351 347 348 347 348 351 349 351
178 173 174 167 160 155 185 164 155 141 127 114 109 105 92 75 69 64 60 53 48 43 39 40 42 37 27 22 19 10 4 2 354 349 343 342 344 350 351 353 355 355 360
184 185 186 181 182 192 195 189 182 180 180 163 145 130 115 104 94 82 68 60 60 59 54 49 44 38 35 29 22 18 12 355 340 339 346 343 348 355 358 0 360 1 359
194 193 194 196 194 199 203 204 203 196 195 196 188 168 150 142 127 105 84 75 70 67 60 51 46 40 32 31 28 23 12 3 357 346 344 356 3 9 8 8 8 4 6
202 200 200 199 201 205 208 210 210 208 207 201 200 188 170 162 154 142 128 111 102 87 72 60 49 41 32 31 29 20 16 16 12 358 356 19 26 25 18 22 23 21 22
Height
1500 1502 1504 1505 1507 1510 1513 1514 1515 1517 1518 1519 1519 1520 1520 1520 1519 1519 1519 1518 1518 1518 1517 1517 1517 1517 1518 1519 1520 1521 1522 1524 1524 1526 1528 1529 1531 1532 1534 1535 1537 1538 1539
1503 1504 1506 1508 1509 1511 1513 1514 1515 1517 1518 1518 1519 1519 1519 1519 1519 1519 1518 1517 1516 1516 1515 1515 1514 1514 1514 1515 1516 1516 1517 1519 1520 1521 1522 1524 1526 1528 1529 1531 1532 1534 1535
1504 1506 1507 1508 1510 1511 1513 1514 1515 1516 1517 1517 1518 1518 1518 1518 1518 1517 1517 1517 1516 1515 1514 1513 1513 1512 1512 1512 1512 1512 1513 1514 1515 1516 1517 1519 1520 1522 1524 1526 1528 1529 1530
1506 1507 1508 1509 1510 1511 1512 1513 1514 1515 1516 1516 1517 1517 1517 1517 1517 1517 1516 1516 1515 1514 1513 1512 1511 1511 1511 1510 1510 1510 1510 1510 1511 1512 1513 1514 1515 1517 1519 1521 1523 1524 1525
1507 1508 1509 1509 1510 1510 1511 1511 1512 1513 1513 1514 1514 1515 1515 1515 1515 1515 1515 1515 1515 1514 1513 1512 1511 1510 1509 1509 1508 1508 1508 1508 1508 1509 1509 1510 1511 1512 1514 1516 1517 1519 1520
1509 1509 1509 1509 1509 1510 1510 1510 1510 1510 1510 1511 1511 1511 1511 1512 1511 1511 1512 1513 1513 1513 1513 1512 1511 1509 1509 1508 1508 1507 1507 1507 1507 1507 1507 1507 1508 1508 1509 1511 1512 1514 1515
1511 1511 1510 1510 1509 1509 1508 1508 1508 1508 1507 1507 1507 1507 1507 1508 1508 1508 1509 1510 1511 1511 1511 1511 1510 1509 1509 1509 1508 1507 1507 1506 1506 1506 1506 1505 1505 1505 1506 1507 1507 1508 1510
1514 1513 1512 1511 1510 1509 1508 1507 1506 1505 1505 1504 1504 1504 1504 1504 1504 1505 1506 1507 1508 1508 1509 1509 1510 1510 1508 1509 1509 1508 1508 1507 1506 1505 1506 1505 1505 1504 1504 1505 1504 1505 1506
1518 1516 1515 1514 1512 1510 1509 1508 1506 1505 1504 1503 1502 1502 1501 1501 1501 1502 1502 1504 1505 1505 1506 1507 1508 1508 1507 1507 1507 1508 1507 1506 1505 1505 1504 1504 1503 1503 1503 1503 1503 1504 1504
1522 1520 1518 1516 1514 1512 1511 1509 1507 1506 1504 1503 1502 1501 1500 1499 1499 1499 1500 1501 1502 1502 1503 1504 1505 1505 1506 1506 1506 1507 1507 1506 1505 1504 1503 1503 1502 1502 1502 1502 1502 1502 1502
1525 1523 1521 1519 1517 1514 1513 1511 1509 1507 1505 1504 1502 1501 1500 1499 1498 1498 1498 1499 1500 1500 1501 1502 1503 1503 1504 1504 1505 1505 1505 1504 1504 1503 1503 1502 1502 1502 1501 1501 1501 1501 1501
1527 1525 1523 1521 1519 1516 1514 1513 1511 1509 1507 1505 1504 1503 1501 1500 1499 1498 1498 1498 1498 1499 1500 1501 1501 1502 1503 1503 1504 1503 1503 1503 1502 1502 1502 1501 1501 1501 1501 1500 1500 1499 1499
1529 1527 1525 1523 1520 1518 1516 1515 1513 1511 1509 1507 1506 1505 1503 1502 1501 1500 1499 1498 1498 1499 1499 1499 1500 1501 1502 1503 1502 1502 1502 1502 1501 1501 1501 1500 1500 1500 1499 1499 1499 1498 1498
1531 1529 1527 1525 1523 1521 1518 1516 1514 1513 1511 1510 1508 1507 1506 1504 1503 1502 1501 1500 1499 1499 1499 1500 1500 1501 1501 1502 1502 1502 1502 1501 1501 1500 1500 1500 1499 1499 1499 1498 1498 1497 1497
1533 1531 1529 1527 1525 1523 1520 1518 1516 1515 1513 1512 1511 1509 1508 1507 1505 1504 1503 1502 1501 1500 1500 1501 1501 1501 1502 1502 1502 1502 1501 1501 1501 1500 1500 1499 1499 1499 1498 1497 1497 1496 1496
1534 1532 1530 1529 1527 1525 1523 1521 1519 1518 1516 1515 1514 1512 1511 1509 1508 1507 1506 1504 1503 1503 1503 1502 1502 1502 1503 1503 1503 1502 1502 1501 1501 1501 1500 1499 1499 1498 1498 1497 1496 1496 1495
1534 1533 1531 1530 1529 1527 1526 1525 1523 1521 1520 1518 1517 1515 1514 1512 1511 1510 1509 1508 1507 1506 1505 1505 1504 1504 1504 1504 1504 1503 1503 1502 1502 1501 1500 1500 1499 1498 1498 1497 1496 1495 1494
1534 1533 1532 1531 1530 1529 1528 1526 1525 1524 1523 1522 1520 1518 1517 1515 1514 1512 1511 1511 1510 1508 1508 1507 1507 1507 1506 1506 1505 1505 1504 1503 1502 1501 1501 1500 1499 1498 1497 1496 1495 1493 1492
1534 1534 1533 1532 1531 1530 1529 1528 1527 1526 1525 1524 1523 1522 1520 1518 1517 1515 1514 1513 1512 1511 1510 1510 1509 1509 1508 1507 1506 1505 1504 1503 1502 1501 1500 1499 1498 1497 1496 1495 1494 1492 1491
1534 1533 1533 1533 1532 1532 1531 1530 1529 1529 1528 1527 1525 1524 1523 1521 1520 1518 1516 1515 1514 1513 1512 1512 1511 1510 1509 1508 1507 1506 1505 1503 1502 1501 1499 1498 1497 1496 1495 1494 1492 1491 1489
1534 1533 1533 1533 1533 1533 1532 1532 1531 1530 1530 1528 1527 1526 1524 1523 1521 1520 1518 1517 1516 1515 1514 1513 1512 1511 1510 1509 1507 1506 1505 1503 1502 1500 1499 1497 1496 1495 1494 1492 1491 1490 1488
1534 1534 1534 1534 1533 1533 1533 1533 1532 1532 1531 1530 1528 1527 1526 1524 1523 1521 1520 1518 1517 1516 1515 1514 1512 1511 1510 1509 1507 1506 1504 1503 1501 1500 1498 1497 1496 1495 1493 1492 1490 1489 1487
1534 1533 1533 1534 1533 1533 1533 1533 1533 1532 1532 1531 1530 1528 1527 1526 1524 1522 1521 1520 1518 1517 1516 1514 1513 1512 1510 1509 1507 1506 1504 1503 1501 1500 1498 1497 1496 1495 1493 1492 1491 1489 1487
1533 1533 1533 1533 1533 1533 1533 1533 1533 1532 1532 1531 1530 1529 1528 1526 1525 1523 1522 1520 1519 1518 1516 1515 1514 1513 1511 1509 1508 1506 1505 1503 1501 1500 1499 1498 1497 1495 1494 1492 1491 1489 1487
1532 1532 1532 1532 1532 1532 1532 1532 1532 1532 1531 1531 1530 1529 1528 1526 1525 1524 1522 1521 1520 1519 1517 1516 1515 1513 1512 1511 1509 1507 1505 1504 1502 1501 1499 1498 1497 1496 1494 1493 1491 1490 1488
1530 1530 1531 1531 1531 1531 1531 1531 1532 1531 1531 1530 1529 1528 1527 1526 1525 1524 1522 1521 1520 1519 1518 1517 1516 1514 1513 1511 1510 1508 1506 1505 1503 1501 1500 1499 1497 1496 1495 1494 1492 1491 1489